Location: McLaughlin
(0.0000°N, 0.0000°E)
Time: 22:06:55
(UTC+00:00)

Envisat - Pass Details

Date: 20 June 2019
Orbit: 764 x 766 km, 98.1° (Epoch: 18 July)

Event Time Altitude Azimuth Distance (km) Brightness Sun altitude
Rises 19:24:42 0° 186° (S) 3,231 6.1 -19.0°
Reaches altitude 10° 19:27:13 10° 196° (SSW) 2,303 5.4 -19.6°
Maximum altitude 19:31:41 32° 258° (WSW) 1,294 4.6 -20.6°
Drops below altitude 10° 19:36:10 10° 320° (NW) 2,295 6.4 -21.6°
Sets 19:38:41 0° 330° (NNW) 3,218 7.1 -22.2°
